Orbital Elements at Epoch 2459000.5 (2020-May-31.0) TDB
Reference: JPL 31 (heliocentric ecliptic J2000)
Element | Value | Uncertainty (1-sigma) | Units |
e | .07138175516898085 | 2.6456e-08 | |
a | 2.347564279730083 | 6.9923e-09 | au |
q | 2.179991021070946 | 6.3994e-08 | au |
i | 7.436570134691144 | 2.9466e-06 | deg |
node | 117.7701762781496 | 2.7022e-05 | deg |
peri | 344.1181890965236 | 3.718e-05 | deg |
M | 250.6283816462353 | 2.5369e-05 | deg |
tp | 2459399.641425028160 (2021-Jul-04.14142503) | 9.2674e-05 | TDB |
period | 1313.786109897051 3.60 | 5.8697e-06 1.607e-08 | d yr |
n | .2740172066731699 | 1.2243e-09 | deg/d |
Q | 2.515137538389221 | 7.4914e-09 | au |
|
| | Orbit Determination Parameters
Additional Information
|